FW3047 Weather Reports


time (UTC)temp
F
wind
direction
speed
knots
gust
knots
rain 1hr
in
rain 24hr
in
rain mn
in
humidity
%
barometer
mb
20260906171524 92 136 2.6 7.0 0.00 0.00 0.00 47 1015.1
20260906170029 91 179 1.7 5.2 0.00 0.00 0.00 47 1015.4
20260906164518 91 163 2.6 5.2 0.00 0.00 0.00 48 1015.4
20260906163014 89 182 0.9 4.3 0.00 0.00 0.00 50 1015.5
20260906161512 89 145 1.7 5.2 0.00 0.00 0.00 51 1015.5
20260906160016 88 226 2.6 7.8 0.00 0.00 0.00 52 1015.5
20260906154507 87 186 2.6 6.1 0.00 0.00 0.00 52 1015.4
20260906153004 86 140 1.7 6.1 0.00 0.00 0.00 53 1015.1
20260906151503 86 136 1.7 5.2 0.00 0.00 0.00 54 1015.1
20260906144604 84 360 1.7 5.2 0.00 0.00 0.00 56 1015.3
20260906143055 83 360 4.3 8.7 0.00 0.00 0.00 55 1015.3
20260906141552 82 360 4.3 8.7 0.00 0.00 0.00 56 1015.5
20260906140048 81 360 2.6 7.0 0.00 0.00 0.00 58 1015.5
20260906134549 80 360 2.6 6.1 0.00 0.00 0.00 59 1015.5
20260906133047 79 98 1.7 7.8 0.00 0.00 0.00 59 1015.3
20260906131545 79 92 1.7 7.0 0.00 0.00 0.00 59 1015.3
20260906130049 77 360 0.0 4.3 0.00 0.00 0.00 61 1015.0
20260906124541 76 360 2.6 7.0 0.00 0.00 0.00 63 1014.8
20260906123042 75 360 0.9 2.6 0.00 0.00 0.00 64 1014.7
20260906121543 74 360 0.0 1.7 0.00 0.00 0.00 64 1014.6
20260906120035 75 360 0.0 2.6 0.00 0.00 0.00 64 1014.5
20260906114540 76 360 0.9 2.6 0.00 0.00 0.00 62 1014.4
20260906113042 77 360 0.0 1.7 0.00 0.00 0.00 60 1014.1
20260906111527 78 360 0.0 2.6 0.00 0.00 0.00 58 1014.1
20260906110026 78 360 0.9 3.5 0.00 0.00 0.00 57 1013.9
20260906104529 78 360 0.0 0.9 0.00 0.00 0.00 59 1014.0
20260906103025 77 360 0.0 0.0 0.00 0.00 0.00 60 1013.8
20260906101525 77 360 0.0 1.7 0.00 0.00 0.00 60 1014.0
20260906100023 77 360 0.0 2.6 0.00 0.00 0.00 60 1013.9
20260906094523 77 360 0.0 2.6 0.00 0.00 0.00 61 1013.8
20260906093022 77 360 0.0 2.6 0.00 0.00 0.00 60 1013.7
20260906091531 78 360 0.0 1.7 0.00 0.00 0.00 60 1013.5
20260906090023 78 360 0.0 2.6 0.00 0.00 0.00 60 1013.5
20260906084520 77 360 0.0 0.9 0.00 0.00 0.00 61 1013.4
20260906083020 77 360 0.0 0.0 0.00 0.00 0.00 62 1013.3
20260906081530 77 360 0.0 1.7 0.00 0.00 0.00 62 1013.2
20260906080016 78 360 0.0 3.5 0.00 0.00 0.00 60 1013.1
20260906074520 79 360 0.0 0.0 0.00 0.00 0.00 60 1013.2
20260906073014 78 360 0.0 0.0 0.00 0.00 0.00 59 1013.2
20260906071513 78 360 0.0 0.9 0.00 0.00 0.00 60 1013.1
20260906070012 78 360 0.0 0.0 0.00 0.00 0.00 61 1013.4
20260906064509 78 360 0.0 0.9 0.00 0.00 0.00 60 1013.4
20260906063007 79 360 0.9 2.6 0.00 0.00 0.00 59 1013.7
20260906061505 80 360 1.7 3.5 0.00 0.00 0.00 58 1013.6
20260906060012 80 360 0.0 0.0 0.00 0.00 0.00 58 1013.6
20260906054503 80 360 0.0 0.0 0.00 0.00 0.00 61 1013.7
20260906053002 80 360 0.0 2.6 0.00 0.00 0.00 60 1013.8
20260906051605 79 360 0.0 3.5 0.00 0.00 0.00 60 1013.9
20260906050056 81 360 0.0 2.6 0.00 0.00 0.00 59 1013.6
20260906044555 81 360 0.0 0.0 0.00 0.00 0.00 57 1013.4
20260906043055 82 360 0.0 0.0 0.00 0.00 0.00 57 1013.4
20260906041555 82 360 0.0 0.0 0.00 0.00 0.00 56 1013.4
20260906040054 82 360 0.0 0.0 0.00 0.00 0.00 55 1013.3
20260906034553 82 360 0.0 0.0 0.00 0.00 0.00 56 1013.2
20260906033054 84 360 0.0 0.0 0.00 0.00 0.00 53 1013.1
20260906031601 85 360 0.0 0.0 0.00 0.00 0.00 49 1013.0
20260906030053 85 360 0.0 0.0 0.00 0.00 0.00 49 1013.0
20260906024551 86 360 0.0 0.0 0.00 0.00 0.00 48 1012.8
20260906023052 87 360 0.0 0.0 0.00 0.00 0.00 46 1012.6
20260906021552 88 360 0.0 0.0 0.00 0.00 0.00 45 1012.4
20260906020058 87 360 0.0 0.0 0.00 0.00 0.00 45 1012.2
20260906014550 87 360 0.0 0.0 0.00 0.00 0.00 46 1012.0
20260906013050 88 360 0.0 2.6 0.00 0.00 0.00 47 1011.9
20260906011550 89 121 0.0 0.0 0.00 0.00 0.00 46 1011.9
20260906010049 90 121 0.0 0.0 0.00 0.00 0.00 44 1011.8
20260906004550 90 121 0.0 0.0 0.00 0.00 0.00 44 1011.8
20260906003048 91 122 0.0 2.6 0.00 0.00 0.00 43 1011.8
20260906001548 92 122 0.0 2.6 0.00 0.00 0.00 42 1011.9
20260906000048 93 123 0.9 2.6 0.00 0.00 0.00 40 1011.7
20260905234547 95 126 0.0 1.7 0.00 0.00 0.00 39 1011.6
20260905233049 96 128 0.0 1.7 0.00 0.00 0.00 35 1011.5
20260905231546 96 128 0.9 3.5 0.00 0.00 0.00 34 1011.4
20260905230051 97 124 0.9 2.6 0.00 0.00 0.00 32 1011.4
20260905224600 97 123 0.0 7.8 0.00 0.00 0.00 32 1011.3
20260905223044 99 96 1.7 3.5 0.00 0.00 0.00 30 1011.3
20260905221556 99 181 0.9 2.6 0.00 0.00 0.00 29 1011.3
20260905220042 98 196 0.9 4.3 0.00 0.00 0.00 30 1011.5
20260905214538 99 173 0.9 3.5 0.00 0.00 0.00 30 1011.8
20260905213036 98 105 2.6 4.3 0.00 0.00 0.00 29 1012.1
20260905211534 99 85 0.9 5.2 0.00 0.00 0.00 30 1012.3
20260905210032 99 161 0.0 2.6 0.00 0.00 0.00 31 1012.7
20260905204532 97 170 0.0 2.6 0.00 0.00 0.00 32 1012.9
20260905203033 98 173 0.0 3.5 0.00 0.00 0.00 31 1012.9
20260905201528 97 179 2.6 5.2 0.00 0.00 0.00 32 1013.1
20260905200027 97 205 1.7 4.3 0.00 0.00 0.00 34 1013.2
20260905194526 97 200 1.7 5.2 0.00 0.00 0.00 32 1013.4
20260905193028 97 224 0.0 4.3 0.00 0.00 0.00 32 1013.5
20260905191524 98 242 0.0 3.5 0.00 0.00 0.00 33 1013.7
20260905190024 98 238 0.0 4.3 0.00 0.00 0.00 33 1013.7
20260905184525 98 307 1.7 5.2 0.00 0.00 0.00 35 1013.8
20260905183018 97 281 0.9 6.1 0.00 0.00 0.00 35 1014.0
20260905181515 97 263 0.0 5.2 0.00 0.00 0.00 36 1014.1
20260905180012 96 189 1.7 3.5 0.00 0.00 0.00 37 1014.3
20260905174509 95 246 0.9 3.5 0.00 0.00 0.00 40 1014.5
20260905173007 94 209 1.7 6.1 0.00 0.00 0.00 41 1014.7